Hourly Data Report for October 12, 2014

All times are specified in Local Standard Time (LST). Add 1 hour to adjust for Daylight Saving Time where and when it is observed.

PANGNIRTUNG
NUNAVUT

66°08'36.300" N
65°42'40.500" W
22.60 m
2403049
71826
WXP

Download Data

Hourly Data (October 2014)
Hourly Data Report for October 12, 2014
Temp Definition
°C
Dew Point Temp Definition
°C
Rel Hum Definition
%
Wind Dir Definition
10's deg

Wind Spd Definition
km/h
Visibility Definition
km
Stn Press Definition
kPa
Hmdx Definition


Wind Chill Definition


Weather Definition


TIME
00:00 -2.0 -2.2 98 5 7   99.58   -5 LegendNANA
01:00 -1.2 -5.2 74 6 9   99.63   -4 LegendNANA
02:00 -1.9 -7.5 65 16 7   99.70   -5 LegendNANA
03:00 -1.5 -6.2 70 9 16   99.74   -6 LegendNANA
04:00 -1.9 -6.0 73 7 7   99.81   -5 LegendNANA
05:00 -1.4 -5.2 75 9 14   99.87   -6 LegendNANA
06:00 -1.6 -5.7 74 9 3   99.88   -3 LegendNANA
07:00 -0.5 -4.0 77 10 14   99.94   -5 LegendNANA
08:00 -0.3 -3.4 80 11 7   100.00   -3 LegendNANA
09:00 0.6 -3.4 74 11 15   100.07     LegendNANA
10:00 0.3 -4.1 72 11 10   100.13     LegendNANA
11:00 0.4 -3.9 73 8 24   100.17     LegendNANA
12:00 0.5 -3.7 73 11 33   100.17     LegendNANA
13:00 0.9 -3.5 73 10 35   100.19     LegendNANA
14:00 0.8 -3.8 71 10 30   100.25     LegendNANA
15:00 0.9 -3.5 73 9 25   100.29     LegendNANA
16:00 0.8 -2.4 79 8 36   100.32     LegendNANA
17:00 1.4 -2.8 74 8 27   100.38     LegendNANA
18:00 1.6 -2.7 73 6 18   100.41     LegendNANA
19:00 1.9 -1.9 76 8 19   100.43     LegendNANA
20:00 1.8 -2.0 76 9 19   100.47     LegendNANA
21:00 1.9 -2.1 74 8 19   100.49     LegendNANA
22:00 1.9 -2.4 73 7 13   100.49     LegendNANA
23:00 1.3 -1.1 84 7 13   100.49     LegendNANA

Notes on Data Quality.

Legend

  • E = Estimated
  • M = Missing
  • NA = Not Available
  • ‡ = Partner data that is not subject to review by the National Climate Archives
Date modified: